Preview of NWS' New Version of Forecast
This preview is not operational and should not be used for support decisions.

Regional Weather Roundup (RWR)

Issued by National Weather Service (NWS)

                            
000
ASUS44 KMEG 251100
RWRTN 
TENNESSEE HOURLY STATE WEATHER ROUNDUP
NATIONAL WEATHER SERVICE MEMPHIS TN
600 AM CDT SUN AUG 25 2019

TNZ002-004-019-021-049-052-054-088>092-251200-
WEST TENNESSEE
  
CITY           SKY/WX    TMP DP  RH WIND       PRES   REMARKS
MEMPHIS INTL   CLOUDY    74  73  97 S6        29.96S                  
NWS MEMPHIS      N/A     73 N/A N/A MISG        N/A                   
JACKSON        CLOUDY    73  72  96 CALM      29.98S FOG              
DYERSBURG      CLOUDY    71  69  93 E6        29.98S                  
SELMER         CLOUDY    72  72 100 CALM      29.97S FOG              
$$

TNZ008-025-027-028-033-062-065-066-251200-
NORTH MIDDLE TENNESSEE
  
CITY           SKY/WX    TMP DP  RH WIND       PRES   REMARKS
NASHVILLE      MOCLDY    71  66  84 CALM      30.00S                  
CLARKSVILLE    FAIR      67  61  81 E3        30.00S                  
SMYRNA         FAIR      69  68  96 CALM      30.01S                  
LIVINGSTON     SUNNY     68  64  88 CALM      30.04R                  
CROSSVILLE     CLOUDY    67  64  90 VRB3      30.08S                  
$$

TNZ061-075-076-078-094-096-097-251200-
SOUTH MIDDLE TENNESSEE
  
CITY           SKY/WX    TMP DP  RH WIND       PRES   REMARKS
$$

TNZ017-018-042-046-047-251200-
NORTHEAST TENNESSEE
  
CITY           SKY/WX    TMP DP  RH WIND       PRES   REMARKS
TRI CITIES     FAIR      60  56  86 CALM      30.12S                  
$$

TNZ012-013-036-069-073-074-251200-
CENTRAL EAST TENNESSEE
  
CITY           SKY/WX    TMP DP  RH WIND       PRES   REMARKS
KNOXVILLE      CLOUDY    68  62  81 NE8       30.06R                  
OAK RIDGE      CLOUDY    70  62  76 VRB3      30.08R                  
$$

TNZ083-085-099-251200-
SOUTHEAST TENNESSEE
  
CITY           SKY/WX    TMP DP  RH WIND       PRES   REMARKS
CHATTANOOGA    CLOUDY    71  66  84 S6        30.06R                  
$$

SKY/WX REPORTED AS FAIR MEANS FEW OR NO CLOUDS BELOW
12 THOUSAND FEET.